STARLINK-32636 (62232 NORAD) Tracking and Keplerian Element Data

This shows tracking and keplerian element data for the satellite.

Feedback or suggestion? Click here.




ElementValue
Catalog62232
NameSTARLINK-32636
Epoch Orbit1063
Epoch Day34.81446519
Epoch Year2025
RAAN276.9967
Inclination53.1601
Eccentricity5.31E-05
Argument of Perigee161.947
Mean Anonmoly198.1553
Mean Motion15.39618452
Decay Rate4.069E-05
L11 62232U 24231Q 25034.81446519 .00004069 00000+0 11164-3 0 9993
L22 62232 53.1601 276.9967 0000531 161.9470 198.1553 15.39618452 10632



Live tracking and technical data element details for STARLINK-32636 (NORAD 62232). STARLINK-32636 can be tracked NOW for your location showing map with azimuth and elevation plus other details from your city location.







IsCatalogInMostPopularTable: catalog: 62232, numindb: 14
Update: records affected: 1



GetName: 62232 STARLINK-32636

Hit Count: updated at: Sat, 24 May 2025 17:29:24 GMT